Tiempo cada hora Cayo Guillermo

Hoy, 20 Abril, Martes

Tiempo Temperatura Precipitaciones Viento Presión Humedad
00:00 +25°C° 0 mm 5 mps 761 mmHg 91%
01:00 +25°C° 0 mm 4 mps 761 mmHg 93%
02:00 +25°C° 0 mm 4 mps 761 mmHg 93%
03:00 +25°C° 0 mm 4 mps 761 mmHg 93%
04:00 +25°C° 0 mm 3 mps 761 mmHg 93%
05:00 +25°C° 0 mm 3 mps 761 mmHg 89%
06:00 +26°C° 0 mm 4 mps 762 mmHg 85%
07:00 +27°C° 0 mm 4 mps 762 mmHg 81%
08:00 +29°C° 0 mm 4 mps 762 mmHg 68%
09:00 +33°C° 0 mm 4 mps 762 mmHg 55%
10:00 +35°C° 0 mm 4 mps 762 mmHg 41%
11:00 +37°C° 0 mm 4 mps 762 mmHg 36%
12:00 +39°C° 0 mm 5 mps 761 mmHg 31%
13:00 +40°C° 0 mm 5 mps 761 mmHg 25%
14:00 +39°C° 0 mm 6 mps 760 mmHg 26%
15:00 +39°C° 0 mm 6 mps 760 mmHg 27%
16:00 +38°C° 0 mm 7 mps 760 mmHg 28%
17:00 +35°C° 0 mm 6 mps 760 mmHg 35%
18:00 +33°C° 0 mm 5 mps 760 mmHg 42%
19:00 +30°C° 0 mm 5 mps 761 mmHg 49%
20:00 +29°C° 0 mm 5 mps 761 mmHg 57%
21:00 +28°C° 0 mm 5 mps 762 mmHg 65%
22:00 +26°C° 0 mm 5 mps 762 mmHg 73%
23:00 +26°C° 0 mm 5 mps 762 mmHg 76%

Mañana, 21 Abril, Miércoles

Tiempo Temperatura Precipitaciones Viento Presión Humedad
00:00 +26°C° 0 mm 4 mps 762 mmHg 80%
01:00 +25°C° 0 mm 4 mps 761 mmHg 83%
02:00 +25°C° 0 mm 3 mps 761 mmHg 85%
03:00 +25°C° 0 mm 3 mps 761 mmHg 87%
04:00 +25°C° 0 mm 3 mps 761 mmHg 89%
05:00 +25°C° 0 mm 3 mps 762 mmHg 85%
06:00 +26°C° 0 mm 2 mps 762 mmHg 82%
07:00 +27°C° 0 mm 2 mps 763 mmHg 78%
08:00 +29°C° 0 mm 2 mps 763 mmHg 65%
09:00 +32°C° 0 mm 2 mps 763 mmHg 52%
10:00 +34°C° 0 mm 1 mps 763 mmHg 38%
11:00 +35°C° 0 mm 2 mps 763 mmHg 39%
12:00 +35°C° 0 mm 3 mps 762 mmHg 41%
13:00 +36°C° 0 mm 3 mps 762 mmHg 42%
14:00 +35°C° 0 mm 4 mps 762 mmHg 46%
15:00 +34°C° 0 mm 5 mps 761 mmHg 50%
16:00 +33°C° 0 mm 6 mps 761 mmHg 54%
17:00 +30°C° 0 mm 5 mps 761 mmHg 61%
18:00 +29°C° 0 mm 4 mps 761 mmHg 68%
19:00 +28°C° 0 mm 3 mps 762 mmHg 74%
20:00 +28°C° 0 mm 3 mps 762 mmHg 76%
21:00 +27°C° 0 mm 2 mps 762 mmHg 78%
22:00 +27°C° 0 mm 2 mps 763 mmHg 79%
23:00 +27°C° 0 mm 2 mps 763 mmHg 81%

Pasado mañana, 22 Abril, Jueves

Tiempo Temperatura Precipitaciones Viento Presión Humedad
00:00 +26°C° 0 mm 2 mps 762 mmHg 83%
01:00 +26°C° 0 mm 3 mps 762 mmHg 85%
02:00 +26°C° 0 mm 3 mps 762 mmHg 86%
03:00 +25°C° 0 mm 3 mps 761 mmHg 87%
04:00 +25°C° 0 mm 3 mps 761 mmHg 87%
05:00 +26°C° 0 mm 3 mps 762 mmHg 84%
06:00 +27°C° 0 mm 3 mps 762 mmHg 81%
07:00 +27°C° 0 mm 3 mps 762 mmHg 79%
08:00 +29°C° 0 mm 3 mps 763 mmHg 68%
09:00 +31°C° 0 mm 3 mps 763 mmHg 58%
10:00 +34°C° 0 mm 3 mps 763 mmHg 48%
11:00 +34°C° 0 mm 3 mps 763 mmHg 47%
12:00 +34°C° 0 mm 3 mps 763 mmHg 46%
13:00 +35°C° 0 mm 4 mps 762 mmHg 45%
14:00 +34°C° 0 mm 4 mps 762 mmHg 47%
15:00 +33°C° 0 mm 4 mps 761 mmHg 49%
16:00 +33°C° 0 mm 4 mps 761 mmHg 52%
17:00 +30°C° 0 mm 5 mps 761 mmHg 59%
18:00 +29°C° 0 mm 5 mps 761 mmHg 67%
19:00 +27°C° 0 mm 6 mps 762 mmHg 75%
20:00 +27°C° 0 mm 6 mps 762 mmHg 78%
21:00 +27°C° 0 mm 5 mps 762 mmHg 81%
22:00 +26°C° 0 mm 5 mps 763 mmHg 84%
23:00 +26°C° 0 mm 5 mps 763 mmHg 85%

23 Abril, Viernes

Tiempo Temperatura Precipitaciones Viento Presión Humedad
00:00 +26°C° 0 mm 5 mps 762 mmHg 86%
01:00 +25°C° 0 mm 5 mps 762 mmHg 87%
02:00 +25°C° 0 mm 5 mps 762 mmHg 87%
03:00 +25°C° 0 mm 5 mps 762 mmHg 87%
04:00 +25°C° 0 mm 5 mps 762 mmHg 87%
05:00 +26°C° 0 mm 5 mps 762 mmHg 82%
06:00 +27°C° 0 mm 6 mps 762 mmHg 77%
07:00 +27°C° 0 mm 6 mps 763 mmHg 73%
08:00 +29°C° 0 mm 6 mps 763 mmHg 65%
09:00 +30°C° 0 mm 6 mps 763 mmHg 57%
10:00 +33°C° 0 mm 7 mps 763 mmHg 49%
11:00 +33°C° 0 mm 7 mps 763 mmHg 48%
12:00 +34°C° 0 mm 7 mps 763 mmHg 47%
13:00 +34°C° 0 mm 7 mps 762 mmHg 46%
14:00 +34°C° 0 mm 7 mps 762 mmHg 47%
15:00 +33°C° 0 mm 7 mps 762 mmHg 48%
16:00 +33°C° 0 mm 8 mps 761 mmHg 49%
17:00 +31°C° 0 mm 8 mps 762 mmHg 57%
18:00 +29°C° 0 mm 8 mps 762 mmHg 64%
19:00 +27°C° 0 mm 8 mps 762 mmHg 72%
20:00 +27°C° 0 mm 8 mps 762 mmHg 73%
21:00 +27°C° 0 mm 8 mps 762 mmHg 74%
22:00 +27°C° 0 mm 8 mps 763 mmHg 74%
23:00 +26°C° 0 mm 8 mps 762 mmHg 76%

24 Abril, Sábado

Tiempo Temperatura Precipitaciones Viento Presión Humedad
00:00 +26°C° 0 mm 8 mps 762 mmHg 78%
01:00 +26°C° 0 mm 8 mps 762 mmHg 79%
02:00 +26°C° 0 mm 8 mps 761 mmHg 81%
03:00 +24°C° 0 mm 8 mps 761 mmHg 83%
04:00 +24°C° 0 mm 8 mps 761 mmHg 85%
05:00 +26°C° 0.1 mm 8 mps 761 mmHg 82%
06:00 +27°C° 0.1 mm 8 mps 761 mmHg 78%
07:00 +27°C° 0.1 mm 8 mps 762 mmHg 75%
08:00 +29°C° 0 mm 8 mps 762 mmHg 67%
09:00 +32°C° 0 mm 8 mps 762 mmHg 59%
10:00 +33°C° 0 mm 8 mps 762 mmHg 51%
11:00 +34°C° 0 mm 8 mps 762 mmHg 46%
12:00 +35°C° 0 mm 9 mps 762 mmHg 42%
13:00 +37°C° 0 mm 9 mps 761 mmHg 38%
14:00 +35°C° 0 mm 9 mps 761 mmHg 42%
15:00 +34°C° 0 mm 9 mps 760 mmHg 46%
16:00 +33°C° 0 mm 10 mps 760 mmHg 50%
17:00 +31°C° 0 mm 9 mps 760 mmHg 57%
18:00 +29°C° 0 mm 9 mps 760 mmHg 64%
19:00 +28°C° 0 mm 9 mps 760 mmHg 72%
20:00 +27°C° 0 mm 9 mps 761 mmHg 73%
21:00 +27°C° 0 mm 8 mps 761 mmHg 74%
22:00 +27°C° 0 mm 8 mps 761 mmHg 75%
23:00 +26°C° 0 mm 7 mps 761 mmHg 78%

25 Abril, Domingo

Tiempo Temperatura Precipitaciones Viento Presión Humedad
00:00 +26°C° 0 mm 7 mps 761 mmHg 81%
01:00 +24°C° 0 mm 6 mps 760 mmHg 84%
02:00 +25°C° 0 mm 5 mps 760 mmHg 87%
03:00 +25°C° 0 mm 5 mps 760 mmHg 90%
04:00 +25°C° 0 mm 4 mps 760 mmHg 92%
05:00 +25°C° 0 mm 4 mps 760 mmHg 89%
06:00 +26°C° 0 mm 4 mps 760 mmHg 87%
07:00 +27°C° 0 mm 3 mps 761 mmHg 84%
08:00 +29°C° 0 mm 3 mps 761 mmHg 72%
09:00 +31°C° 0 mm 3 mps 761 mmHg 61%
10:00 +35°C° 0 mm 3 mps 761 mmHg 49%
11:00 +35°C° 0 mm 3 mps 761 mmHg 48%
12:00 +36°C° 0 mm 4 mps 761 mmHg 47%
13:00 +36°C° 0 mm 4 mps 760 mmHg 46%
14:00 +35°C° 0 mm 5 mps 760 mmHg 49%
15:00 +34°C° 0 mm 6 mps 759 mmHg 53%
16:00 +34°C° 0 mm 7 mps 759 mmHg 56%
17:00 +30°C° 0.9 mm 6 mps 759 mmHg 67%
18:00 +28°C° 0.9 mm 5 mps 760 mmHg 79%
19:00 +26°C° 0.9 mm 4 mps 760 mmHg 90%
20:00 +26°C° 0.2 mm 4 mps 761 mmHg 87%
21:00 +26°C° 0.2 mm 4 mps 761 mmHg 85%
22:00 +27°C° 0.2 mm 4 mps 761 mmHg 83%
23:00 +26°C° 0.4 mm 4 mps 761 mmHg 83%
Mostrar más

Necesitamos Su Consentimiento

Meteoprog y nuestros Proveedores de Servicios pueden almacenar y acceder a sus datos personales como cookies, identificadores de dispositivo u otras tecnologías similares de su dispositivo y procesar dichos datos para personalizar contenido y anuncios, además de ofrecer funciones de redes sociales y analizar el tráfico.

  • Almacenar y/o acceder a información en su dispositivo

    Se puede almacenar o acceder a cookies, identificadores de dispositivo u otra información de su dispositivo para los fines anteriormente indicados.

  • Anuncios y contenido personalizados, medición de anuncios y contenido, percepciones del público, y desarrollo de productos

    Los anuncios y el contenido pueden personalizarse en base a su perfil. Se pueden añadir más datos para personalizar mejor los anuncios y contenidos. Se puede medir el rendimiento de los anuncios y contenidos. Se puede obtener la percepción sobre el público que ha visto los anuncios y contenidos. Dichos datos pueden usarse para desarrollar o mejorar la experiencia del usuario, sistemas y software.

Al hacer clic en ‘Estoy De Acuerdo’ usted permitirá el uso de las cookies, identificadores de dispositivo, balizas web u otras tecnologías similares indicadas. Su configuración puede cambiarse desde el navegador de su dispositivo.

Para ciertos fines, los intereses legítimos pueden ser considerados por encima del consentimiento. Puede leer más sobre ello en nuestra Política de Privacidad y Cookies.